Location: UFOWorks Observatory
(42.1050°N, 72.2350°W)
Time: 20:16:23
(UTC-04:00)

ISS - Visible Passes

Search period start: 29 May 2015 00:00
Search period end: 08 June 2015 00:00
Orbit: 399 x 404 km, 51.6° (Epoch: 29 May)

Date Brightness Start Highest point End Pass type
(mag) Time Alt. Az. Time Alt. Az. Time Alt. Az.
29 May -0.9 00:42:46 24° N 00:42:46 24° N 00:45:08 10° NE visible
29 May -0.2 02:17:36 10° NW 02:19:38 15° N 02:21:40 10° NE visible
29 May -0.9 03:54:03 10° NW 03:56:51 26° NNE 03:59:40 10° E visible
29 May -1.3 23:50:05 26° NNE 23:50:05 26° NNE 23:52:01 10° NE visible
30 May -0.2 01:23:59 10° NW 01:26:06 16° N 01:28:12 10° NE visible
30 May -0.5 03:00:55 10° NW 03:03:24 20° NNE 03:05:53 10° ENE visible
30 May -3.1 04:36:58 10° NW 04:40:15 75° NE 04:43:30 10° ESE visible
30 May -1.8 21:17:21 10° S 21:19:29 17° SE 21:21:42 10° E visible
30 May -2.8 22:52:26 10° WSW 22:55:38 58° NNW 22:58:51 10° NE visible
31 May -0.4 00:30:12 10° WNW 00:32:34 18° NNW 00:34:55 10° NE visible
31 May -0.2 02:07:41 10° NW 02:09:52 17° N 02:12:05 10° NE visible
31 May -2.0 03:43:47 10° NW 03:46:55 42° NNE 03:50:03 10° E visible
31 May -3.5 21:59:08 10° SW 22:02:22 75° SE 22:05:36 10° ENE visible
31 May -0.8 23:36:24 10° WNW 23:39:03 23° NNW 23:41:43 10° NE visible
01 Jun -0.1 01:14:17 10° NW 01:16:19 15° N 01:18:21 10° NE visible
01 Jun -1.1 02:50:39 10° NW 02:53:31 28° NNE 02:56:24 10° E visible
01 Jun -3.1 04:26:53 10° WNW 04:30:04 48° SW 04:33:12 10° SE visible
01 Jun -2.8 21:06:08 10° SSW 21:09:09 37° SE 21:12:11 10° ENE visible
01 Jun -1.4 22:42:38 10° W 22:45:36 31° NNW 22:48:34 10° NE visible
02 Jun -0.1 00:20:41 10° NW 00:22:45 16° N 00:24:48 10° NE visible
02 Jun -0.6 01:57:28 10° NW 02:00:02 21° NNE 02:02:36 10° ENE visible
02 Jun -3.4 03:33:32 10° NW 03:36:49 87° NNE 03:40:05 10° SE visible
02 Jun -2.4 21:49:02 10° WSW 21:52:12 50° NNW 21:55:23 10° NE visible
02 Jun -0.3 23:26:54 10° NW 23:29:10 17° N 23:31:27 10° NE visible
03 Jun -0.3 01:04:15 10° NW 01:06:29 17° N 01:08:45 10° NE visible
03 Jun -2.3 02:40:18 10° NW 02:43:29 48° NNE 02:46:39 10° ESE visible
03 Jun -2.1 04:17:09 10° W 04:19:42 21° SW 04:22:14 10° S visible
03 Jun -3.4 20:55:38 10° SW 20:58:52 88° SSE 21:02:08 10° NE visible
03 Jun -0.6 22:33:03 10° WNW 22:35:38 21° NNW 22:38:13 10° NE visible
04 Jun -0.1 00:10:51 10° NW 00:12:54 15° N 00:14:57 10° NE visible
04 Jun -1.4 01:47:07 10° NW 01:50:03 30° NNE 01:53:01 10° E visible
04 Jun -2.7 03:23:27 10° WNW 03:28:41 17° SSE 03:29:37 10° SSE visible
04 Jun -1.1 21:39:14 10° W 21:42:07 29° NNW 21:45:01 10° NE visible
04 Jun -0.1 23:17:16 10° NW 23:19:18 15° N 23:21:20 10° NE visible
05 Jun -0.8 00:53:56 10° NW 00:56:34 22° NNE 00:58:02 17° NE visible
05 Jun -0.8 02:30:01 10° WNW 02:30:30 13° WNW 02:30:30 13° WNW visible
05 Jun -0.2 22:23:28 10° NW 22:25:41 17° N 22:27:54 10° NE visible
06 Jun -0.4 00:00:41 10° NW 00:03:00 18° N 00:05:19 10° ENE visible
06 Jun -1.0 01:36:44 10° NW 01:37:53 20° NW 01:37:53 20° NW visible
06 Jun -0.5 21:29:36 10° WNW 21:32:06 20° NNW 21:34:36 10° NE visible
06 Jun -0.3 23:07:19 10° NW 23:09:23 16° N 23:11:28 10° NE visible
07 Jun -1.3 00:43:31 10° NW 00:45:44 29° N 00:45:44 29° N visible
07 Jun -0.3 22:13:44 10° NW 22:15:45 15° N 22:17:46 10° NE visible
07 Jun -1.1 23:50:18 10° NW 23:53:00 23° NNE 23:53:47 21° NE visible
